South Haven, MI

8:44 AM EDT on October 22, 2017 (GMT -0400)
South Haven

Weather History for KLWA - March, 2013

Change the Weather History Date:

Tuesday, March 26, 2013

  Actual Average (KBEH) Record (KBEH)
Temperature  
Mean Temperature 34 °F -  
Max Temperature 37 °F 50 °F 77 °F (1976)
Min Temperature 32 °F 31 °F 12 °F (2014)
Degree Days  
Heating Degree Days 30    
Moisture  
Dew Point 30 °F    
Average Humidity 82    
Maximum Humidity 91    
Minimum Humidity 75    
Precipitation  
Precipitation 0.00 in - - ()
Sea Level Pressure  
Sea Level Pressure 30.11 in    
Wind  
Wind Speed 8 mph (NNW)    
Max Wind Speed 17 mph    
Max Gust Speed 25 mph    
Visibility 10 miles    
Events Snow    
Averages and records for this station are not official NWS values.
T = Trace of Precipitation, MM = Missing Value Source: NWS Daily Summary

Daily Weather History Graph

Daily Weather History Graph

Search for Another Location

Airport or City:

Trip Planner

Search our weather history database for the weather conditions in past years. The results will help you decide how hot, cold, wet, or windy it might be!

Date:

Astronomy

Mar. 26, 2013 Rise Set
Actual Time 7:37 AM EDT 8:04 PM EDT
Civil Twilight 7:09 AM EDT 8:32 PM EDT
Nautical Twilight 6:36 AM EDT 9:05 PM EDT
Astronomical Twilight 6:02 AM EDT 9:40 PM EDT
Moon 7:41 PM EDT (3/26) 6:54 AM EDT (3/26)
Length of Visible Light 13h 23m
Length of Day
12h 26m
Waxing Gibbous, 99% of the Moon is Illuminated
Mar 26
Waxing Gibbous
Mar 27
Full
Apr 3
Last Quarter
Apr 10
New
Apr 18
First Quarter

Hourly Weather History & Observations

Time (EDT) Temp. Windchill Dew Point Humidity Pressure Visibility Wind Dir Wind Speed Gust Speed Precip Events Conditions
12:15 AM 33.8 °F 27.0 °F 28.2 °F 80% 30.00 in 10.0 mi North 8.1 mph - N/A   Overcast
12:34 AM 33.8 °F 27.0 °F 27.7 °F 78% 30.00 in 10.0 mi North 8.1 mph - N/A   Overcast
12:55 AM 33.6 °F 27.5 °F 27.5 °F 78% 30.00 in 10.0 mi North 6.9 mph - N/A   Overcast
1:15 AM 33.4 °F 26.6 °F 27.5 °F 79% 30.00 in 10.0 mi North 8.1 mph - N/A   Overcast
1:35 AM 33.8 °F 27.0 °F 28.0 °F 79% 30.01 in 10.0 mi North 8.1 mph - N/A   Overcast
1:55 AM 33.4 °F 25.9 °F 28.0 °F 81% 30.01 in 10.0 mi North 9.2 mph - N/A   Overcast
2:15 AM 33.3 °F 27.1 °F 28.8 °F 84% 30.01 in 10.0 mi North 6.9 mph - N/A   Overcast
2:35 AM 33.1 °F 26.1 °F 30.2 °F 89% 30.02 in 10.0 mi North 8.1 mph - N/A   Overcast
2:55 AM 32.9 °F 27.5 °F 30.0 °F 89% 30.02 in 10.0 mi North 5.8 mph - N/A   Overcast
3:14 AM 32.9 °F 27.5 °F 29.8 °F 88% 30.02 in 10.0 mi North 5.8 mph - N/A   Overcast
3:35 AM 33.1 °F 26.1 °F 29.7 °F 87% 30.02 in 10.0 mi North 8.1 mph - N/A   Overcast
3:55 AM 32.9 °F 26.7 °F 29.3 °F 87% 30.02 in 10.0 mi NNW 6.9 mph - N/A   Overcast
4:15 AM 32.9 °F 27.5 °F 29.3 °F 87% 30.02 in 10.0 mi North 5.8 mph - N/A   Overcast
4:35 AM 32.9 °F 26.7 °F 29.3 °F 87% 30.02 in 10.0 mi North 6.9 mph - N/A   Overcast
4:55 AM 32.9 °F 28.5 °F 29.3 °F 87% 30.02 in 10.0 mi NNW 4.6 mph - N/A   Overcast
5:15 AM 32.9 °F 26.7 °F 29.3 °F 87% 30.03 in 10.0 mi NNW 6.9 mph - N/A   Overcast
5:35 AM 32.9 °F 27.5 °F 29.1 °F 86% 30.03 in 10.0 mi NNW 5.8 mph - N/A   Overcast
5:55 AM 32.9 °F 26.7 °F 28.8 °F 85% 30.04 in 10.0 mi North 6.9 mph - N/A   Overcast
6:15 AM 33.1 °F 26.1 °F 28.9 °F 85% 30.04 in 10.0 mi North 8.1 mph - N/A   Overcast
6:35 AM 33.1 °F 26.9 °F 29.1 °F 85% 30.05 in 10.0 mi North 6.9 mph - N/A   Overcast
6:55 AM 33.1 °F 26.1 °F 29.1 °F 85% 30.05 in 10.0 mi NNW 8.1 mph - N/A   Overcast
7:14 AM 33.1 °F 26.9 °F 28.9 °F 85% 30.06 in 10.0 mi North 6.9 mph - N/A   Overcast
7:35 AM 32.9 °F 27.5 °F 28.8 °F 85% 30.07 in 10.0 mi North 5.8 mph - N/A   Overcast
7:55 AM 32.9 °F 27.5 °F 29.3 °F 87% 30.07 in 10.0 mi North 5.8 mph - N/A   Overcast
8:15 AM 33.1 °F 26.1 °F 29.8 °F 88% 30.08 in 7.0 mi North 8.1 mph - N/A   Overcast
8:35 AM 33.1 °F 26.1 °F 30.7 °F 91% 30.09 in 3.0 mi North 8.1 mph - N/A Snow Light Snow
8:55 AM 33.8 °F 25.8 °F 29.3 °F 84% 30.10 in 10.0 mi North 10.4 mph 16.1 mph N/A   Overcast
9:15 AM 34.0 °F 26.0 °F 29.3 °F 83% 30.10 in 10.0 mi NNW 10.4 mph 17.3 mph N/A   Overcast
9:35 AM 35.1 °F 26.9 °F 29.3 °F 80% 30.10 in 10.0 mi NNW 11.5 mph 18.4 mph N/A   Overcast
9:55 AM 35.8 °F 29.4 °F 29.3 °F 77% 30.11 in 10.0 mi NNW 8.1 mph - N/A   Overcast
10:15 AM 36.0 °F 28.0 °F 29.3 °F 77% 30.11 in 10.0 mi NNW 11.5 mph 17.3 mph N/A   Overcast
10:35 AM 36.7 °F 28.4 °F 30.4 °F 78% 30.12 in 10.0 mi NNW 12.7 mph 20.7 mph N/A   Mostly Cloudy
10:54 AM 37.0 °F 28.1 °F 30.2 °F 76% 30.12 in 10.0 mi NNW 15.0 mph 19.6 mph N/A   Mostly Cloudy
11:15 AM 37.4 °F 29.3 °F 30.4 °F 76% 30.12 in 10.0 mi NNW 12.7 mph 18.4 mph N/A   Overcast
11:34 AM 36.7 °F 26.9 °F 29.7 °F 76% 30.12 in 10.0 mi NW 17.3 mph 20.7 mph N/A   Overcast
11:54 AM 37.8 °F 30.2 °F 30.6 °F 75% 30.13 in 10.0 mi NW 11.5 mph 25.3 mph N/A   Mostly Cloudy
12:15 PM 37.2 °F 29.1 °F 30.0 °F 75% 30.14 in 10.0 mi NW 12.7 mph 19.6 mph N/A   Overcast
12:34 PM 36.5 °F 28.2 °F 30.2 °F 78% 30.14 in 10.0 mi NW 12.7 mph 18.4 mph N/A   Overcast
12:55 PM 37.0 °F 29.3 °F 30.4 °F 77% 30.14 in 10.0 mi NW 11.5 mph 20.7 mph N/A   Overcast
1:15 PM 37.2 °F 30.0 °F 30.0 °F 75% 30.14 in 10.0 mi NW 10.4 mph 21.9 mph N/A   Overcast
1:34 PM 36.5 °F 29.2 °F 30.0 °F 77% 30.14 in 10.0 mi WNW 10.4 mph - N/A   Overcast
1:54 PM 36.3 °F 28.0 °F 30.0 °F 78% 30.14 in 10.0 mi WNW 12.7 mph - N/A   Overcast
2:15 PM 36.1 °F 27.7 °F 29.7 °F 77% 30.14 in 10.0 mi WNW 12.7 mph 19.6 mph N/A   Overcast
2:35 PM 35.8 °F 27.8 °F 29.8 °F 79% 30.14 in 10.0 mi WNW 11.5 mph 16.1 mph N/A   Overcast
2:55 PM 35.1 °F 27.4 °F 29.8 °F 81% 30.14 in 10.0 mi NW 10.4 mph - N/A   Overcast
3:15 PM 34.9 °F 26.6 °F 29.8 °F 82% 30.14 in 10.0 mi NW 11.5 mph - N/A   Overcast
3:35 PM 35.1 °F 27.4 °F 30.0 °F 82% 30.14 in 10.0 mi WNW 10.4 mph 17.3 mph N/A   Overcast
3:55 PM 35.1 °F 28.6 °F 29.8 °F 81% 30.14 in 10.0 mi NW 8.1 mph - N/A   Overcast
4:15 PM 34.9 °F 26.6 °F 29.8 °F 82% 30.14 in 10.0 mi NW 11.5 mph 16.1 mph N/A   Overcast
4:35 PM 34.9 °F 27.7 °F 30.0 °F 82% 30.15 in 10.0 mi NW 9.2 mph 18.4 mph N/A   Overcast
4:55 PM 34.9 °F 27.1 °F 29.8 °F 82% 30.15 in 10.0 mi WNW 10.4 mph 16.1 mph N/A   Overcast
5:15 PM 34.7 °F 27.5 °F 30.2 °F 84% 30.15 in 10.0 mi NW 9.2 mph - N/A   Overcast
5:35 PM 34.9 °F 27.1 °F 30.0 °F 82% 30.15 in 10.0 mi NW 10.4 mph - N/A   Overcast
5:54 PM 34.9 °F 27.1 °F 29.8 °F 82% 30.15 in 10.0 mi NW 10.4 mph 17.3 mph N/A   Overcast
6:15 PM 35.2 °F 27.1 °F 30.2 °F 82% 30.15 in 10.0 mi NW 11.5 mph 16.1 mph N/A   Overcast
6:35 PM 35.2 °F 28.1 °F 30.2 °F 82% 30.16 in 10.0 mi NW 9.2 mph - N/A   Overcast
6:55 PM 35.2 °F 28.1 °F 30.6 °F 83% 30.16 in 10.0 mi NW 9.2 mph - N/A   Overcast
7:15 PM 35.1 °F 28.6 °F 30.6 °F 84% 30.17 in 10.0 mi NW 8.1 mph - N/A   Overcast
7:35 PM 35.1 °F 28.6 °F 30.2 °F 82% 30.17 in 10.0 mi NW 8.1 mph - N/A   Overcast
7:55 PM 35.1 °F 27.9 °F 30.6 °F 84% 30.17 in 10.0 mi NW 9.2 mph - N/A   Overcast
8:15 PM 35.1 °F 29.3 °F 30.2 °F 82% 30.17 in 10.0 mi NW 6.9 mph - N/A   Overcast
8:35 PM 35.2 °F 29.5 °F 30.2 °F 82% 30.18 in 10.0 mi NW 6.9 mph - N/A   Overcast
8:54 PM 35.1 °F 27.9 °F 30.2 °F 82% 30.18 in 10.0 mi NW 9.2 mph - N/A   Overcast
9:15 PM 34.7 °F 29.6 °F 30.0 °F 83% 30.19 in 10.0 mi NW 5.8 mph - N/A   Overcast
9:35 PM 34.7 °F 28.8 °F 30.2 °F 84% 30.19 in 10.0 mi NW 6.9 mph - N/A   Overcast
9:55 PM 34.9 °F 29.9 °F 30.6 °F 84% 30.19 in 10.0 mi NW 5.8 mph - N/A   Overcast
10:15 PM 35.1 °F 29.3 °F 30.7 °F 84% 30.20 in 10.0 mi NW 6.9 mph - N/A   Overcast
10:34 PM 35.1 °F 30.1 °F 30.9 °F 85% 30.20 in 10.0 mi NW 5.8 mph - N/A   Overcast
10:55 PM 35.1 °F 31.0 °F 31.1 °F 85% 30.20 in 10.0 mi NW 4.6 mph - N/A   Overcast
11:15 PM 35.2 °F 28.8 °F 31.5 °F 86% 30.20 in 10.0 mi NW 8.1 mph - N/A   Overcast
11:35 PM 35.6 °F 30.7 °F 30.9 °F 83% 30.20 in 10.0 mi NW 5.8 mph - N/A   Overcast
11:55 PM 35.6 °F 29.9 °F 30.9 °F 83% 30.20 in 10.0 mi NNW 6.9 mph - N/A   Overcast